ABOUT US
vACC Philippines is a recognized member of the VATSIM network. We are dedicated to enchancing the online experience of both local and international virtual pilots. Mandated to provide professional and realistic air traffic operations.

vACC Philippines aims to provide the most realistic air traffic system simulation service that is close to the real thing as possible when flying on the VATSIM network.


METARS

RPLL 231200Z 14004KT 9999 FEW023 26/21 Q1012 NOSIG RMK A2988


RPVM 231200Z VRB02KT 9999 FEW020 SCT300 26/24 Q1009 RMK A2980


RPMD 231200Z 02011KT 3000 -TSRA SCT015CB OVC080 25/25 Q1009 RMK A2980 SLGT TS W/ LTG N-NE MOD RA



AIRFIELDS COVERED


Manila (RPLL)

Subic Bay (RPLB)

Mactan-Cebu (RPVM)

Clark (RPLC)

Laoag (RPLI)


Davao (RPMD)


Bacolod (RPVB)


Zamboanga (RPMZ)


General Santos (RPMR)


Iloilo (RPVI)


Kalibo (RPVK)


Legazpi (RPLP)


Puerto Princesa (RPVP)